This is the latest recevied weather packets stored in our database for station/object IA5ITY-13. If no packets are shown the sender has not sent any weather packets the latest 10 day(s).
| Time | Temp. | Humidity | Pressure | Rain* | Wind** | Luminosity | Snow |
|---|---|---|---|---|---|---|---|
| 1777819812 | 20° C | 58% | 1017.6 hPa | 0 mm | - | - | - |
| 1777819512 | 18.89° C | 60% | 1017.6 hPa | 0 mm | - | - | - |
| 1777819212 | 20° C | 61% | 1017.6 hPa | 0 mm | - | - | - |
| 1777818908 | 20° C | 62% | 1017.7 hPa | 0 mm | - | - | - |
| 1777818622 | 20° C | 61% | 1017.6 hPa | 0 mm | - | - | - |
| 1777818308 | 20° C | 59% | 1017.5 hPa | 0 mm | - | - | - |
| 1777818012 | 20° C | 61% | 1017.6 hPa | 0 mm | - | - | - |
| 1777817712 | 20° C | 62% | 1017.6 hPa | 0 mm | - | - | - |
| 1777817412 | 20° C | 59% | 1017.5 hPa | 0 mm | - | - | - |
| 1777817108 | 21.11° C | 55% | 1017.5 hPa | 0 mm | - | - | - |
| 1777816831 | 21.11° C | 56% | 1017.5 hPa | 0 mm | - | - | - |
| 1777816509 | 21.11° C | 58% | 1017.6 hPa | 0 mm | - | - | - |
| 1777816212 | 20° C | 58% | 1017.8 hPa | 0 mm | - | - | - |
| 1777815911 | 20° C | 57% | 1017.9 hPa | 0 mm | - | - | - |
| 1777815612 | 21.11° C | 55% | 1017.9 hPa | 0 mm | - | - | - |
| 1777815309 | 21.11° C | 55% | 1018 hPa | 0 mm | - | - | - |
| 1777815024 | 20° C | 58% | 1018.2 hPa | 0 mm | - | - | - |
| 1777814708 | 20° C | 56% | 1018.2 hPa | 0 mm | - | - | - |
| 1777814412 | 20° C | 57% | 1018.3 hPa | 0 mm | - | - | - |
| 1777814112 | 20° C | 60% | 1018.3 hPa | 0 mm | - | - | - |
| 1777813813 | 20° C | 56% | 1018.3 hPa | 0 mm | - | - | - |
| 1777813228 | 21.11° C | 56% | 1018.6 hPa | 0 mm | - | - | - |
| 1777812909 | 20° C | 59% | 1018.7 hPa | 0 mm | - | - | - |
| 1777812612 | 20° C | 54% | 1018.8 hPa | 0 mm | - | - | - |
| 1777812312 | 20° C | 51% | 1018.9 hPa | 0 mm | - | - | - |
* Rain latest hour (hover to see other rain measurements)
** Current wind speed in m/s (hover to see current wind gust speed)